Regional Weather Roundup
Issued by NWS

Home | Current Version | Previous Version | Text Only | Print | Product List | Glossary On
Versions: 1 2 3 4 5 6 7 8 9 10 11 12 13 14 15 16 17 18 19 20 21 22 23 24 25 26 27
000
ASUS46 KSEW 280610
RWRWA

WASHINGTON REGIONAL WEATHER ROUNDUP
NATIONAL WEATHER SERVICE SEATTLE WA
1100 PM PDT SAT MAY 27 2017

NOTE:"FAIR" INDICATES FEW OR NO CLOUDS BELOW 12,000 FEET WITH NO
SIGNIFICANT WEATHER AND/OR OBSTRUCTIONS TO VISIBILITY.

WAZ507-509-555>559-280700-
SEATTLE, TACOMA, EVERETT, AND VICINITY

CITY           SKY/WX    TMP DP  RH WIND       PRES   REMARKS
EVERETT        CLEAR     65  46  50 N3        30.07S
6HR MIN TEMP:  65; 6HR MAX TEMP:  79;

BOEING FIELD   CLEAR     71  48  43 CALM      30.04S
6HR MIN TEMP:  71; 6HR MAX TEMP:  84;

RENTON         CLEAR     70  56  61 N6        30.03S
6HR MIN TEMP:  70; 6HR MAX TEMP:  84;

SEATAC AIRPORT CLEAR     69  49  48 N6        30.06R
6HR MIN TEMP:  69; 6HR MAX TEMP:  86;

JBLM-MCCHORD   CLEAR     65  53  64 CALM      30.04S
6HR MIN TEMP:  65; 6HR MAX TEMP:  84;

PUYALLUP         N/A     63  54  72 CALM      30.05S
BREMERTON      CLEAR     58  48  69 CALM      30.06S
6HR MIN TEMP:  58; 6HR MAX TEMP:  83;

JBLM-FT LEWIS  CLEAR     67  46  46 SE1       30.07
TACOMA NARROWS CLEAR     71  46  40 N8        30.04S
6HR MIN TEMP:  70; 6HR MAX TEMP:  81;

$$

WAZ001-503-506-510-514-515-280700-
NORTH INTERIOR

CITY           SKY/WX    TMP DP  RH WIND       PRES   REMARKS
BELLINGHAM     CLEAR     62  48  60 CALM      30.05R
6HR MIN TEMP:  59; 6HR MAX TEMP:  80;

FRIDAY HARBOR  CLEAR     51  49  92 CALM      30.06S
6HR MIN TEMP:  51; 6HR MAX TEMP:  80;

EASTSOUND      CLEAR     61  52  72 S7        30.05S
PORT ANGELES   CLEAR     56  50  80 W5        30.08S
6HR MIN TEMP:  53; 6HR MAX TEMP:  68;

EDIZ HOOK      FAIR      54  47  78 W10       30.07F
6HR MIN TEMP:  54; 6HR MAX TEMP:  58;

PORT TOWNSEND  FAIR      54  52  94 CALM      30.07S
NAS WHIDBEY    CLEAR     56  46  69 SW3       30.10S
6HR MIN TEMP:  54; 6HR MAX TEMP:  66;

ARLINGTON      CLEAR     63  46  55 NE3       30.08S
6HR MIN TEMP:  63; 6HR MAX TEMP:  82;

BURLINGTON     CLEAR     59  54  82 CALM      30.07R
$$

WAZ020-022-039-040-504-511-512-280700-
SOUTHWEST INTERIOR

CITY           SKY/WX    TMP DP  RH WIND       PRES   REMARKS
SHELTON        CLEAR     65  53  65 CALM      30.04R
6HR MIN TEMP:  61; 6HR MAX TEMP:  87;

OLYMPIA        CLEAR     62  51  67 CALM      30.04S
6HR MIN TEMP:  62; 6HR MAX TEMP:  86;

CHEHALIS       FAIR      63  57  82 CALM      30.04S
KELSO          CLEAR     59  53  80 N5        30.07R
6HR MIN TEMP:  59; 6HR MAX TEMP:  85;

VANCOUVER      CLEAR     73  56  54 N3        30.01R
6HR MIN TEMP:  73; 6HR MAX TEMP:  90;

SCAPPOOSE, OR  CLEAR     68  57  68 N6        30.01R
6HR MIN TEMP:  68; 6HR MAX TEMP:  86;

PORTLAND, OR   CLEAR     69  54  58 NW7       30.02R
6HR MIN TEMP:  69; 6HR MAX TEMP:  89;

$$

WAZ021-516-517-280700-
WASHINGTON COAST

CITY           SKY/WX    TMP DP  RH WIND       PRES   REMARKS
FORKS          CLEAR     52  47  83 NE3       30.08S
6HR MIN TEMP:  51; 6HR MAX TEMP:  68;

HOQUIAM        CLOUDY    52  52 100 SW8       30.10R
6HR MIN TEMP:  52; 6HR MAX TEMP:  57;

ASTORIA, OR    CLOUDY    51  49  92 W6        30.11R FOG
6HR MIN TEMP:  51; 6HR MAX TEMP:  57;

$$

WAZ019-023-024-040-567>569-280700-
CASCADE MOUNTAINS AND COLUMBIA GORGE

CITY           SKY/WX    TMP DP  RH WIND       PRES   REMARKS
STAMPEDE PASS  CLEAR     62  39  42 CALM      30.21S
6HR MIN TEMP:  59; 6HR MAX TEMP:  72;

TROUTDALE, OR  CLEAR     69  55  60 CALM      30.01R
6HR MIN TEMP:  67; 6HR MAX TEMP:  89;

THE DALLES, OR CLEAR     65  46  50 E7        30.02R
6HR MIN TEMP:  65; 6HR MAX TEMP:  93;

$$

WAZ026-027-041>044-520-521-280700-
EAST SLOPES

CITY           SKY/WX    TMP DP  RH WIND       PRES   REMARKS
OMAK           CLEAR     62  47  57 W6        30.08R
6HR MIN TEMP:  60; 6HR MAX TEMP:  85;

WENATCHEE      CLEAR     72  42  34 E10       30.06S
6HR MIN TEMP:  70; 6HR MAX TEMP:  85;

ELLENSBURG     CLEAR     60  45  57 NW5       30.10R
6HR MIN TEMP:  60; 6HR MAX TEMP:  86;

YAKIMA         CLEAR     62  50  64 W8        30.08R
6HR MIN TEMP:  62; 6HR MAX TEMP:  89;

SUNNYSIDE ARPT CLEAR     59  45  59 NE3       30.05S
6HR MIN TEMP:  59; 6HR MAX TEMP:  84;

$$

WAZ028-034-035-280700-
COLUMBIA BASIN

CITY           SKY/WX    TMP DP  RH WIND       PRES   REMARKS
EPHRATA        CLEAR     69  38  32 CALM      30.07R
6HR MIN TEMP:  66; 6HR MAX TEMP:  85;

MOSES LAKE     CLEAR     67  44  43 CALM      30.07S
6HR MIN TEMP:  67; 6HR MAX TEMP:  86;

PASCO          CLEAR     64  53  67 NW3       30.04R
6HR MIN TEMP:  62; 6HR MAX TEMP:  89;

HERMISTON, OR  CLEAR     64  50  60 E5        30.03R
6HR MIN TEMP:  63; 6HR MAX TEMP:  89;

$$

WAZ036>038-280700-
NORTHEAST WASHINGTON

CITY           SKY/WX    TMP DP  RH WIND       PRES   REMARKS
SPOKANE GEIGER CLEAR     64  44  48 SW5       30.13S
6HR MIN TEMP:  64; 6HR MAX TEMP:  79;

SPOKANE FELTS  CLEAR     59  49  69 N3        30.12S
6HR MIN TEMP:  59; 6HR MAX TEMP:  82;

FAIRCHILD AFB  CLEAR     65  44  46 W3        30.13S
6HR MIN TEMP:  65; 6HR MAX TEMP:  78;

COEURDALENE,ID CLEAR     60  49  66 SE5       30.14S
6HR MIN TEMP:  59; 6HR MAX TEMP:  78;

DEER PARK      CLEAR     53  46  77 CALM      30.13R
6HR MIN TEMP:  53; 6HR MAX TEMP:  80;

$$

WAZ029>033-280700-
SOUTHEAST WASHINGTON

CITY           SKY/WX    TMP DP  RH WIND       PRES   REMARKS
PULLMAN        CLEAR     60  45  57 CALM      30.16S
6HR MIN TEMP:  59; 6HR MAX TEMP:  77;

LEWISTON, ID   CLEAR     64  47  53 CALM      30.10R
6HR MIN TEMP:  64; 6HR MAX TEMP:  83;

WALLA WALLA    CLEAR     64  48  56 E10       30.05F
6HR MIN TEMP:  63; 6HR MAX TEMP:  86;

PENDLETON, OR  CLEAR     61  49  64 SE7       30.07S
6HR MIN TEMP:  61; 6HR MAX TEMP:  85;

$$




USA.gov is the U.S. government's official web portal to all federal, state and local government web resources and services.